| time (UTC) | temp F | wind direction | speed MPH | gust MPH | rain 1hr in | rain 24hr in | rain mn in | humidity % | barometer mb |
| 20260509211545 | 60 | 218 | 4.0 | 8.0 | 0.00 | 0.00 | 0.00 | 82 | 1014.5 |
| 20260509210048 | 59 | 221 | 2.0 | 6.0 | 0.00 | 0.00 | 0.00 | 83 | 1014.5 |
| 20260509204543 | 61 | 228 | 2.0 | 4.0 | 0.00 | 0.00 | 0.00 | 81 | 1014.5 |
| 20260509203052 | 59 | 211 | 1.0 | 3.0 | 0.00 | 0.00 | 0.00 | 83 | 1014.6 |
| 20260509201540 | 58 | 190 | 2.0 | 5.0 | 0.00 | 0.00 | 0.00 | 85 | 1014.9 |
| 20260509200039 | 58 | 38 | 1.0 | 4.0 | 0.00 | 0.00 | 0.00 | 84 | 1015.1 |
| 20260509194539 | 58 | 206 | 3.0 | 9.0 | 0.00 | 0.00 | 0.00 | 86 | 1015.2 |
| 20260509193039 | 59 | 238 | 1.0 | 7.0 | 0.00 | 0.00 | 0.00 | 85 | 1015.0 |
| 20260509191538 | 60 | 238 | 2.0 | 5.0 | 0.00 | 0.00 | 0.00 | 86 | 1014.7 |
| 20260509190036 | 59 | 233 | 2.0 | 8.0 | 0.00 | 0.00 | 0.00 | 87 | 1014.8 |
| 20260509184543 | 58 | 175 | 3.0 | 9.0 | 0.00 | 0.00 | 0.00 | 90 | 1014.9 |
| 20260509183031 | 56 | 211 | 4.0 | 8.0 | 0.00 | 0.00 | 0.00 | 90 | 1015.0 |
| 20260509181527 | 56 | 173 | 2.0 | 8.0 | 0.00 | 0.00 | 0.00 | 93 | 1015.1 |
| 20260509180030 | 55 | 192 | 3.0 | 6.0 | 0.00 | 0.00 | 0.00 | 93 | 1015.1 |
| 20260509174529 | 55 | 209 | 1.0 | 4.0 | 0.00 | 0.00 | 0.00 | 95 | 1014.8 |
| 20260509173025 | 54 | 215 | 1.0 | 4.0 | 0.00 | 0.00 | 0.00 | 96 | 1014.6 |
| 20260509171522 | 53 | 211 | 2.0 | 5.0 | 0.00 | 0.00 | 0.00 | 96 | 1014.6 |
| 20260509170036 | 53 | 202 | 0.0 | 0.0 | 0.00 | 0.00 | 0.00 | 96 | 1014.5 |
| 20260509164518 | 53 | 218 | 0.0 | 0.0 | 0.00 | 0.00 | 0.00 | 96 | 1014.5 |
| 20260509163024 | 52 | 219 | 0.0 | 0.0 | 0.00 | 0.00 | 0.00 | 96 | 1014.7 |
| 20260509161518 | 52 | 209 | 0.0 | 0.0 | 0.00 | 0.00 | 0.00 | 96 | 1014.8 |
| 20260509160017 | 53 | 184 | 0.0 | 0.0 | 0.00 | 0.00 | 0.00 | 96 | 1015.0 |
| 20260509154517 | 52 | 234 | 0.0 | 0.0 | 0.00 | 0.00 | 0.00 | 96 | 1015.0 |
| 20260509153114 | 51 | 124 | 0.0 | 0.0 | 0.00 | 0.00 | 0.00 | 96 | 1014.8 |
| 20260509151513 | 51 | 61 | 0.0 | 0.0 | 0.00 | 0.00 | 0.00 | 96 | 1014.8 |
| 20260509150011 | 51 | 44 | 0.0 | 0.0 | 0.00 | 0.00 | 0.00 | 96 | 1014.7 |
| 20260509144515 | 50 | 43 | 0.0 | 0.0 | 0.00 | 0.00 | 0.00 | 96 | 1014.8 |
| 20260509143010 | 49 | 43 | 0.0 | 0.0 | 0.00 | 0.00 | 0.00 | 96 | 1014.7 |
| 20260509141505 | 49 | 43 | 0.0 | 0.0 | 0.00 | 0.00 | 0.00 | 96 | 1014.7 |
| 20260509140059 | 49 | 43 | 0.0 | 0.0 | 0.00 | 0.00 | 0.00 | 96 | 1014.8 |
| 20260509134556 | 48 | 43 | 0.0 | 0.0 | 0.00 | 0.00 | 0.00 | 96 | 1014.8 |
| 20260509133105 | 49 | 43 | 0.0 | 0.0 | 0.00 | 0.00 | 0.00 | 96 | 1014.7 |
| 20260509131549 | 48 | 43 | 0.0 | 0.0 | 0.00 | 0.00 | 0.00 | 96 | 1014.5 |
| 20260509130049 | 47 | 43 | 0.0 | 0.0 | 0.00 | 0.00 | 0.00 | 96 | 1014.8 |
| 20260509124550 | 47 | 43 | 0.0 | 0.0 | 0.00 | 0.00 | 0.00 | 96 | 1014.7 |
| 20260509123048 | 46 | 43 | 0.0 | 0.0 | 0.00 | 0.00 | 0.00 | 96 | 1014.6 |
| 20260509121551 | 46 | 43 | 0.0 | 0.0 | 0.00 | 0.00 | 0.00 | 95 | 1014.6 |
| 20260509120043 | 47 | 43 | 0.0 | 0.0 | 0.00 | 0.00 | 0.00 | 96 | 1014.7 |
| 20260509114543 | 47 | 43 | 0.0 | 0.0 | 0.00 | 0.01 | 0.00 | 95 | 1014.7 |
| 20260509113043 | 47 | 43 | 0.0 | 0.0 | 0.00 | 0.01 | 0.00 | 95 | 1015.0 |
| 20260509111540 | 46 | 43 | 0.0 | 0.0 | 0.00 | 0.01 | 0.00 | 95 | 1015.0 |
| 20260509110037 | 47 | 43 | 0.0 | 0.0 | 0.00 | 0.01 | 0.00 | 95 | 1014.9 |
| 20260509104553 | 47 | 43 | 0.0 | 0.0 | 0.00 | 0.01 | 0.00 | 95 | 1015.0 |
| 20260509103035 | 47 | 43 | 0.0 | 0.0 | 0.00 | 0.01 | 0.00 | 95 | 1015.1 |
| 20260509101537 | 47 | 43 | 0.0 | 0.0 | 0.00 | 0.01 | 0.00 | 95 | 1015.2 |
| 20260509100030 | 47 | 43 | 0.0 | 0.0 | 0.00 | 0.01 | 0.00 | 95 | 1015.2 |
| 20260509094533 | 48 | 43 | 0.0 | 0.0 | 0.00 | 0.02 | 0.00 | 95 | 1015.4 |
| 20260509093026 | 48 | 43 | 0.0 | 0.0 | 0.00 | 0.02 | 0.00 | 95 | 1015.7 |
| 20260509091527 | 48 | 43 | 0.0 | 0.0 | 0.00 | 0.02 | 0.00 | 95 | 1015.8 |
| 20260509090027 | 48 | 43 | 0.0 | 0.0 | 0.00 | 0.02 | 0.00 | 95 | 1015.9 |
| 20260509084523 | 48 | 43 | 0.0 | 0.0 | 0.00 | 0.02 | 0.00 | 95 | 1016.1 |
| 20260509083021 | 47 | 43 | 0.0 | 0.0 | 0.00 | 0.02 | 0.00 | 94 | 1016.3 |
| 20260509081524 | 48 | 43 | 0.0 | 0.0 | 0.00 | 0.02 | 0.00 | 95 | 1016.3 |
| 20260509080017 | 48 | 43 | 0.0 | 0.0 | 0.00 | 0.02 | 0.00 | 95 | 1016.2 |
| 20260509074516 | 48 | 43 | 0.0 | 0.0 | 0.00 | 0.02 | 0.00 | 94 | 1016.3 |
| 20260509073032 | 48 | 43 | 0.0 | 0.0 | 0.00 | 0.02 | 0.00 | 94 | 1016.5 |
| 20260509071514 | 49 | 43 | 0.0 | 0.0 | 0.00 | 0.02 | 0.00 | 94 | 1016.4 |
| 20260509070017 | 49 | 43 | 0.0 | 0.0 | 0.00 | 0.02 | 0.00 | 94 | 1016.4 |
| 20260509064508 | 49 | 43 | 0.0 | 0.0 | 0.00 | 0.02 | 0.02 | 94 | 1016.5 |
| 20260509063007 | 49 | 43 | 0.0 | 0.0 | 0.00 | 0.02 | 0.02 | 94 | 1016.6 |
| 20260509061506 | 49 | 43 | 0.0 | 0.0 | 0.00 | 0.02 | 0.02 | 94 | 1016.8 |
| 20260509060006 | 50 | 43 | 0.0 | 0.0 | 0.00 | 0.02 | 0.02 | 94 | 1016.9 |
| 20260509054505 | 50 | 43 | 0.0 | 0.0 | 0.00 | 0.02 | 0.02 | 93 | 1016.7 |
| 20260509053008 | 50 | 43 | 0.0 | 0.0 | 0.00 | 0.02 | 0.02 | 93 | 1016.7 |
| 20260509051507 | 50 | 43 | 0.0 | 0.0 | 0.00 | 0.02 | 0.02 | 93 | 1017.1 |
| 20260509050006 | 50 | 43 | 0.0 | 0.0 | 0.00 | 0.02 | 0.02 | 93 | 1017.0 |
| 20260509044502 | 50 | 43 | 0.0 | 0.0 | 0.00 | 0.02 | 0.02 | 93 | 1017.3 |
| 20260509043002 | 50 | 43 | 0.0 | 0.0 | 0.00 | 0.02 | 0.02 | 92 | 1017.4 |
| 20260509041600 | 50 | 43 | 0.0 | 0.0 | 0.00 | 0.02 | 0.02 | 92 | 1017.2 |
| 20260509040057 | 51 | 43 | 0.0 | 0.0 | 0.00 | 0.02 | 0.02 | 91 | 1017.0 |
| 20260509034556 | 51 | 43 | 0.0 | 1.0 | 0.00 | 0.02 | 0.02 | 90 | 1016.8 |
| 20260509033057 | 52 | 43 | 0.0 | 2.0 | 0.00 | 0.02 | 0.02 | 89 | 1016.8 |
| 20260509031555 | 53 | 42 | 0.0 | 2.0 | 0.00 | 0.02 | 0.02 | 89 | 1016.9 |
| 20260509030056 | 53 | 348 | 0.0 | 2.0 | 0.00 | 0.02 | 0.02 | 87 | 1017.0 |
| 20260509024556 | 54 | 78 | 0.0 | 2.0 | 0.00 | 0.02 | 0.02 | 86 | 1017.0 |
| 20260509023054 | 55 | 39 | 0.0 | 3.0 | 0.00 | 0.02 | 0.02 | 85 | 1017.1 |
| 20260509021554 | 55 | 27 | 0.0 | 3.0 | 0.00 | 0.02 | 0.02 | 85 | 1017.0 |
| 20260509020057 | 55 | 216 | 0.0 | 2.0 | 0.00 | 0.02 | 0.02 | 84 | 1017.1 |
| 20260509014553 | 57 | 216 | 0.0 | 4.0 | 0.00 | 0.02 | 0.02 | 83 | 1017.2 |
| 20260509013056 | 58 | 206 | 0.0 | 5.0 | 0.00 | 0.02 | 0.02 | 82 | 1017.2 |
| 20260509011553 | 58 | 223 | 3.0 | 7.0 | 0.00 | 0.02 | 0.02 | 80 | 1017.3 |
| 20260509010051 | 59 | 189 | 4.0 | 7.0 | 0.00 | 0.02 | 0.02 | 78 | 1017.4 |
| 20260509004555 | 60 | 221 | 1.0 | 7.0 | 0.00 | 0.02 | 0.02 | 74 | 1017.6 |
| 20260509003050 | 62 | 194 | 1.0 | 5.0 | 0.00 | 0.02 | 0.02 | 76 | 1017.8 |
| 20260509001550 | 62 | 186 | 1.0 | 8.0 | 0.00 | 0.02 | 0.02 | 75 | 1017.8 |
| 20260509000049 | 62 | 179 | 2.0 | 7.0 | 0.00 | 0.02 | 0.02 | 72 | 1017.9 |
| 20260508234553 | 62 | 186 | 2.0 | 7.0 | 0.00 | 0.02 | 0.02 | 73 | 1018.0 |
| 20260508233052 | 61 | 175 | 3.0 | 10.0 | 0.00 | 0.02 | 0.02 | 73 | 1017.9 |
| 20260508231547 | 62 | 223 | 4.0 | 10.0 | 0.00 | 0.02 | 0.02 | 71 | 1017.9 |
| 20260508230046 | 62 | 240 | 3.0 | 11.0 | 0.00 | 0.02 | 0.02 | 74 | 1018.0 |
| 20260508224545 | 61 | 232 | 5.0 | 11.0 | 0.00 | 0.02 | 0.02 | 72 | 1018.1 |
| 20260508223045 | 62 | 188 | 4.0 | 9.0 | 0.00 | 0.02 | 0.02 | 74 | 1018.1 |
| 20260508221544 | 62 | 173 | 4.0 | 10.0 | 0.00 | 0.02 | 0.02 | 74 | 1018.2 |
| 20260508220043 | 63 | 221 | 3.0 | 12.0 | 0.00 | 0.02 | 0.02 | 72 | 1018.2 |
| 20260508214544 | 64 | 178 | 3.0 | 6.0 | 0.00 | 0.02 | 0.02 | 73 | 1018.3 |
| 20260508213041 | 62 | 202 | 3.0 | 9.0 | 0.00 | 0.02 | 0.02 | 76 | 1018.5 |